www.pogodaiklimat.ru

Погода и климат >> Архив погоды >> Пакистан >> Sibi


ПОГОДА в Sibi

  • Прогноз погоды в Sibi
  • Монитор погоды в Sibi
  • Климат города

АРХИВ ПОГОДЫ в Sibi

Время (UTC), дата Ветер
(напр.,м/с)
 
Видим.   Явления Облачность Т
(С)
Тd
(С)
f
(%)
Тe
(С)
Тes
(С)
Комфортность P
(гПа)
Po
(гПа)
Тmin
(С)
Tmax
(С)
R
(мм)
R24
(мм)
S
(см)
06 19.06 штиль 0 10 км ясно +38.9 +26.0 48 +54 +80 опасность
перегрева
995.3 995.0
09 19.06 ЮЗ 1 10 км ясно +42.2 +27.2 43 +59 +81 опасность
перегрева
991.7 1000.0
12 19.06 ЮЗ 1 10 км ясно +43.8 +28.9 44 +64 +71 опасность
перегрева
990.4 1000.8 +45.1
15 19.06 штиль 0 10 км ясно +41.7 +26.6 43 +57 +57 опасность
перегрева
991.8 1000.0
18 19.06 штиль 0 10 км ясно +38.9 +26.0 48 +54 +54 опасность
перегрева
992.1 1000.0
21 19.06 штиль 0 4000 м ясно +35.0 +26.0 60 +51 +51 опасность
перегрева
991.4 988.4
00 20.06 ЮЗ 3 10 км ясно +33.3 +25.9 65 +49 +49 опасность
перегрева
992.7 978.0
03 20.06 ЮЗ 2 10 км ясно +34.4 +25.5 60 +49 +55 опасность
перегрева
996.2 981.3 +30.0
06 20.06 ЮЗ 3 10 км ясно +36.7 +27.0 58 +55 +71 опасность
перегрева
997.1 997.0
09 20.06 ЮЗ 3 10 км ясно +40.6 +27.8 49 +59 +75 опасность
перегрева
992.0 992.0
12 20.06 ЮЗ 2 10 км ясно +45.0 +29.3 42 +66 +72 опасность
перегрева
988.9 974.9 +46.1
15 20.06 ЮЗ 1 4000 м ясно +40.0 +28.7 53 +61 +61 опасность
перегрева
989.8 1000.0
18 20.06 штиль 0 50 км ?/? +37.7 +28.2 59 +21 -145 комфорт 990.3 1008.3
21 20.06 СЗ 3 4000 м 10/5 300 м
[Sc As trans]
+34.4 +27.0 65 +52 +52 опасность
перегрева
990.3 1000.0
00 21.06 СЗ 4 4000 м 5/5 1200 м
[Sc]
+26.7 +24.6 88 +38 +38 очень
душно
989.9 975.2
03 21.06 СЗ 3 10 км 5/5 1200 м
[Sc]
+35.6 +25.9 57 +51 +53 опасность
перегрева
993.0 977.2 +29.0
06 21.06 СЗ 2 10 км 5/5 300 м
[Sc]
+36.1 +25.6 55 +51 +60 опасность
перегрева
995.6 1000.0
09 21.06 СЗ 3 10 км 5/5 1200 м
[Sc]
+37.8 +26.4 52 +54 +61 опасность
перегрева
993.8 994.0
12 21.06 ЮЗ 2 10 км 5/5 1200 м
[Sc]
+39.4 +27.4 51 +58 +60 опасность
перегрева
992.2 996.7 +40.0
15 21.06 СЗ 2 4000 м 5/5 300 м
[Sc]
+37.2 +25.1 50 +51 +51 опасность
перегрева
993.4 1000.0
18 21.06 СЗ 2 4000 м ясно +35.0 +25.3 57 +49 +49 опасность
перегрева
996.3 996.0
21 21.06 СЗ 2 4000 м 5/5 1200 м
[Sc]
+32.2 +24.2 63 +44 +44 опасность
перегрева
995.4 995.0
00 22.06 штиль 0 4000 м ясно +30.0 +23.5 68 +41 +41 опасность
перегрева
994.4 979.6
03 22.06 штиль 0 10 км ясно +33.9 +24.9 59 +47 +55 опасность
перегрева
995.9 981.2 +28.0
06 22.06 ЮЗ 4 10 км ясно +36.1 +26.4 58 +53 +66 опасность
перегрева
997.9 998.0
09 22.06 ЮЗ 2 10 км ясно +38.3 +27.8 55 +57 +78 опасность
перегрева
995.5 1000.0
12 22.06 ЮЗ 4 10 км 5/5 1200 м
[Sc]
+39.4 +27.4 51 +58 +59 опасность
перегрева
994.3 1000.7 +40.0
15 22.06 штиль 0 4000 м ясно +37.2 +25.1 50 +51 +51 опасность
перегрева
995.2 1000.0
18 22.06 ЮЗ 3 4000 м ясно +35.0 +24.5 55 +48 +48 опасность
перегрева
997.8 998.0
21 22.06 ЮЗ 4 4000 м ясно +32.8 +23.8 59 +44 +44 опасность
перегрева
996.2 996.0
00 23.06 штиль 0 50 км ?/? +33.2 +22.8 55 +33 +40 жарко 995.7 985.7
03 23.06 ЮЗ 1 10 км 5/5 300 м
[Sc]
+35.0 +22.9 50 +45 +48 опасность
перегрева
996.7 982.1 +29.1
06 23.06 ЮЗ 1 10 км 5/5 300 м
[Sc]
+36.7 +25.5 53 +51 +63 опасность
перегрева
999.7 1000.0
09 23.06 штиль 0 10 км ясно +39.4 +27.4 51 +58 +84 опасность
перегрева
997.9 1000.0
12 23.06 штиль 0 10 км ясно +41.1 +28.4 49 +61 +68 опасность
перегрева
994.5 997.2 +42.0
15 23.06 штиль 0 4000 м ясно +38.9 +26.8 51 +56 +56 опасность
перегрева
995.2 995.0
18 23.06 ЮЗ 3 4000 м ясно +36.7 +25.5 53 +51 +51 опасность
перегрева
996.9 997.0
21 23.06 штиль 0 4000 м ясно +33.9 +26.5 65 +51 +51 опасность
перегрева
996.4 988.9
00 24.06 штиль 0 4000 м ясно +31.7 +24.4 65 +44 +44 опасность
перегрева
995.4 980.7
03 24.06 штиль 0 10 км ясно +36.7 +25.5 53 +51 +59 опасность
перегрева
996.7 982.3 +30.0
06 24.06 штиль 0 10 км ясно +38.9 +28.2 55 +59 +86 опасность
перегрева
997.4 1000.0
09 24.06 ЮЗ 2 10 км ясно +42.8 +29.2 47 +64 +85 опасность
перегрева
993.4 1000.0
12 24.06 ЮЗ 3 10 км ясно +46.1 +30.5 43 +71 +75 опасность
перегрева
989.8 1001.2 +47.0
15 24.06 ЮЗ 1 4000 м ясно +42.8 +29.2 47 +64 +64 опасность
перегрева
990.7 1000.0
18 24.06 ЮЗ 4 4000 м ясно +39.4 +28.9 56 +62 +62 опасность
перегрева
993.1 993.0
21 24.06 штиль 0 4000 м ясно +36.1 +27.2 60 +54 +54 опасность
перегрева
1012.9 993.0
00 25.06 штиль 0 50 км ?/? +29.0 +25.5 81 1029.0 992.5
03 25.06 штиль 0 10 км ясно +37.2 +25.2 50 +51 +58 опасность
перегрева
1020.3 994.0 +12.0
06 25.06 ЮЗ 1 10 км ясно +40.6 +27.8 49 +59 +82 опасность
перегрева
1054.8 1000.0
09 25.06 штиль 0 10 км ясно +43.3 +29.8 48 +67 +93 опасность
перегрева
1066.2 1000.0
12 25.06 ЮЗ 2 10 км 5/5 1200 м
[Sc]
+47.2 +31.7 43 +75 +77 опасность
перегрева
988.5 1000.0 +48.0
15 25.06 ЮЗ 1 4000 м 5/5 300 м
[Sc]
+42.2 +31.0 54 +70 +70 опасность
перегрева
990.0 1000.0
18 25.06 ЮЗ 2 4000 м ясно +38.9 +30.5 63 +67 +67 опасность
перегрева
992.9 1000.0
21 25.06 штиль 0 4000 м ясно +35.0 +28.3 68 +56 +56 опасность
перегрева
992.4 1000.0
00 26.06 штиль 0 50 км ?/? +29.0 +30.3 100 +51 +51 опасность
перегрева
1027.0 1027.0

 

Местоположение метеостанции Sibi (Пакистан): широта 29.55 долгота 67.88 высота над уровнем моря 134 м.

В архиве по умолчанию представлена погода в Sibi за последнюю неделю. Архивные данные за месяц целиком и за предыдущие месяцы, начиная с января 2011 года, Вы можете получить, выбрав интересующий диапазон дат из раскрывающегося списка и нажав кнопку "Ввод!".

Внимание! Время в таблицах - всемирное. Для получения местного времени необходимо прибавить поправку, которая в Sibi равна 5 ч.

Смотрите также архив погоды в соседних городах и на ближайших метеорологических станциях:

Погода в Quetta Airport (Пакистан) (124 км)
Погода в Kalat (Пакистан) (139 км)
Погода в Jacobabad (Пакистан) (150 км)
Погода в Barkhan (Пакистан) (181 км)
Погода в Khuzdar (Пакистан) (227 км)
Погода в Rohri (Пакистан) (232 км)
Погода в Zhob (Пакистан) (252 км)
Погода в Khanpur (Пакистан) (290 км)
Погода в Pad Idan (Пакистан) (301 км)
Погода в Dal Bandin (Пакистан) (346 км)

Пояснения к столбцам:

Ветер - указаны скорость ветра в м/с - средняя за 10 мин, порывы в срок и между сроками (в фигурных скобках) и направление, откуда дует ветер: С - северный, СВ - северо-восточный, В - восточный, ЮВ - юго-восточный, Ю - южный, ЮЗ - юго-западный, З - западный, СЗ - северо-западный.
Видимость - горизонтальная дальность видимости в метрах или километрах. При видимости от 1 до 10 км при отсутствии осадков обычно наблюдается дымка, при ухудшении видимости до 1 км и менее - туман. В сухую погоду видимость может ухудшаться дымом, пылью или мглою.
Явления - указаны атмосферные явления, наблюдавшиеся в срок или в последний час перед сроком; фигурными скобками обозначены явления, наблюдавшиеся между сроками (за 1-3 часа до срока); квадратными скобками обозначены град или гололедные отложения с указанием их диаметра в мм.
Облачность - указаны через наклонную черту общая и нижняя облачность в баллах и высота нижней границы облаков в метрах; квадратными скобками обозначены формы облаков: Ci - перистые, Cs - перисто-слоистые, Cc - перисто-кучевые, Ac - высококучевые, As - высокослоистые, Sc - слоисто-кучевые, Ns - слоисто-дождевые, Cu - кучевые, Cb - кучево-дождевые. Подробнее классификацию облаков см. в Атласе облаков (PDF).
T - Температура воздуха - температура, измеренная на высоте 2 м над землей.
Td - Температура точки росы - температура, при понижении до которой содержащийся в воздухе водяной пар достигнет насыщения.
f - Относительная влажность воздуха - влажноcть воздуха, измеренная на высоте 2 м над землей.
Te - Эффективная температура - температура, которую ощущает одетый по сезону человек в тени. Характеристика душности погоды. При расчете учитывается влияние влажности воздуха и скорости ветра на теплоощущения человека.
Tes - Эффективная температура на солнце - температура, которую ощущает человек, с поправкой на солнечный нагрев. Характеристика знойности погоды. Зависит от высоты солнца над горизонтом, облачности и скорости ветра. Ночью, в пасмурную погоду, а также при ветре 12 м/с и более поправка равна нулю.
P - Атмосферное давление - приведенное к уровню моря атмосферное давление.
Po - Атмосферное давление - измеренное на уровне метеостанции атмосферное давление.
Tmin - Минимальная температура - минимум температуры воздуха на высоте 2 м над землей.
Tmax - Максимальная температура - максимум температуры воздуха на высоте 2 м над землей.
R - Количество осадков - Количество выпавших осадков за период времени, мм. При наведении курсора мыши на число - период времени, за который выпало указанное количество осадков.
R24 - Количество осадков - Количество выпавших осадков за 24 часа, мм.
S - Снежный покров - Высота снежного покрова, см. При наведении курсора мыши на число - состояние снежного покрова и степень покрытия местности в баллах.